Location: Unspecified
(48.5539°N, 71.6350°W)
Time: 00:23:15
(UTC-05:00)

ISS - Pass Details

Date: 28 January 2019
Orbit: 403 x 411 km, 51.6° (Epoch: 17 February)

Event Time Altitude Azimuth Distance (km) Brightness Sun altitude
Rises 19:19:04 0° 277° (W) 2,338 1.4 -26.5°
Reaches altitude 10° 19:21:12 10° 283° (WNW) 1,478 0.0 -26.9°
Enters shadow 19:22:33 21° 294° (WNW) 976 -1.3 -27.1°
Maximum altitude 19:24:26 47° 359° (N) 558 - -27.4°
Drops below altitude 10° 19:27:39 10° 75° (ENE) 1,482 - -27.9°
Sets 19:29:48 0° 81° (E) 2,346 - -28.3°
